Showing default

QPS-SAR-9 SUSANOO-I, 63205

Orbit data source: Space-Track

QPS-SAR-9 SUSANOO-I, 63205 is a payload satellite owned by QPS Labs (JP) in LEO that was launched on Sat, 15 Mar 2025 UTC via an ELECTRON launch vehicle from the Rocket Lab Launch Complex (RLLC). Payload-class satellites include a variety of spacecraft equipped with specific instruments for various scientific and technological missions. These include communications satellites like Starlink; space stations such as the ISS; scientific satellites like the Hubble; Earth observation satellites from companies like Planet Labs, Umbra, and HawkEye 360; GPS; miniature CubeSats for education and research; and military/defense satellites.

Loading next visibility...
Identifier
63205, 2025-050A
Orbit
LEO
Country
Flag of JPJP / JPN
Related business
Manufacturer
QPS Labs
Mission
Operational Commercial Radar Imaging
Bus & Motor
QSAT, Unknown motor
Mass
~120 kg wet, ~100 kg dry
Launch date (UTC)
2025-03-15 (11 months ago)
Launch vehicle
ELECTRON
Launch site
Rocket Lab Launch Complex (RLLC)
Object type
Payload
Rocket body
Debris
Shape & HBR
Hex Cyl + 2 Pan + 1 Dish, 14.5 m
Radar Cross Section
1.179 m², Large (>1 m²)

Expand to show TLE details & history
Last TLE update: 8 hours ago

TLE from 8 hours ago
0 QPS-SAR-9 SUSANOO-I
1 63205U 25050A   26036.56005656  .00010520  00000-0  80995-3 0  9990
2 63205  42.0196 108.8212 0002825 334.1972  25.8714 15.01637880 49164
Epoch: 2026-02-05T13:26Z
TLE epoch observation values (Epoch: 2026-02-05T13:26:28.886Z)
Latitude
0.00003°
Longitude
131.49034°
Altitude
559.752 km
Speed
7.584 km/s
True Right ascension
07h 15m 17s
True Declination
0° 00' 00"
Sunlit
Object was in full shadow at epoch
Visualization orbit readout
Latitude
Unknown
Longitude
Unknown
Altitude
Unknown
Speed
Unknown
Apparent Right ascension
Unknown
Apparent Declination
Unknown
Sunlit
N/A
Visualization observer readout
Local Sidereal Time
23:19:49
Azimuth
Unknown
Elevation
Unknown
Doppler factor
Unknown
Orbital elements
Apogee altitude
565.892 km
Perigee altitude
561.97 km
Semi-major axis
6,942.068 km
Eccentricity
0.00028
Inclination
42.0196°
RAAN
108.8212°
Arg. of periapsis
334.1972°
True anomaly
25.88553°
Mean anomaly
25.8714°
Eccentric anomaly
25.87846°
Mean motion
3.75241 °/min
Orbital period
95.94 mins
BSTAR
0.00080995
Loading maneuver chart data...
Computing Atmospheric mass density...
Loading historical data...
Loading historical data...
Loading historical data...
Loading historical data...
Loading historical data...
Loading historical data...
Loading historical data...
Other satellites on launch #50 in the year 2025 (2025-03-15 UTC)

Documentation

Showing up to 5 results
|